Time,TemperatureF,DewpointF,PressureIn,WindDirection,WindDirectionDegrees,WindSpeedMPH,WindSpeedGustMPH,Humidity,HourlyPrecipIn,Conditions,Clouds,dailyrainin,SolarRadiationWatts/m^2,SoftwareType,DateUTC
2013-06-05 00:02:00,50.0,40.0,-100.00,North,359,2.0,5.0,69,0.00,,,0.00,0.000000,,2013-06-05 08:02:00,
2013-06-05 00:12:00,50.0,40.0,-100.00,North,359,2.0,5.0,69,0.00,,,0.00,0.000000,,2013-06-05 08:12:00,
2013-06-05 00:42:00,48.0,41.0,-100.00,SE,130,1.0,4.0,75,0.00,,,-99.99,0.000000,,2013-06-05 08:42:00,
2013-06-05 00:52:00,48.0,41.0,-100.00,SE,130,1.0,4.0,75,0.00,,,-99.99,0.000000,,2013-06-05 08:52:00,
2013-06-05 01:02:00,48.0,41.0,-100.00,SE,130,1.0,4.0,75,0.00,,,-99.99,0.000000,,2013-06-05 09:02:00,
2013-06-05 01:12:00,48.0,41.0,-100.00,SE,130,1.0,4.0,75,0.00,,,-99.99,0.000000,,2013-06-05 09:12:00,
2013-06-05 01:21:00,48.0,41.0,-100.00,SE,130,1.0,4.0,75,0.00,,,-99.99,0.000000,,2013-06-05 09:21:00,
2013-06-05 01:43:00,48.0,42.0,-100.00,ESE,113,1.0,6.0,80,0.00,,,0.00,0.000000,,2013-06-05 09:43:00,
2013-06-05 01:53:00,48.0,42.0,-100.00,ESE,113,1.0,6.0,80,0.00,,,0.00,0.000000,,2013-06-05 09:53:00,
2013-06-05 02:03:00,48.0,42.0,-100.00,ESE,113,1.0,6.0,80,0.00,,,0.00,0.000000,,2013-06-05 10:03:00,
2013-06-05 02:12:00,48.0,42.0,-100.00,ESE,113,1.0,6.0,80,0.00,,,0.00,0.000000,,2013-06-05 10:12:00,
2013-06-05 02:22:00,48.0,42.0,-100.00,ESE,113,1.0,6.0,80,0.00,,,0.00,0.000000,,2013-06-05 10:22:00,
2013-06-05 02:43:00,48.0,39.0,-100.00,NNE,12,2.0,7.0,70,0.00,,,-99.99,0.000000,,2013-06-05 10:43:00,
2013-06-05 02:52:00,48.0,39.0,-100.00,NNE,12,2.0,7.0,70,0.00,,,-99.99,0.000000,,2013-06-05 10:52:00,
2013-06-05 03:02:00,48.0,39.0,-100.00,NNE,12,2.0,7.0,70,0.00,,,-99.99,0.000000,,2013-06-05 11:02:00,
2013-06-05 03:12:00,48.0,39.0,-100.00,NNE,12,2.0,7.0,70,0.00,,,-99.99,0.000000,,2013-06-05 11:12:00,
2013-06-05 03:21:00,48.0,39.0,-100.00,NNE,12,2.0,7.0,70,0.00,,,-99.99,0.000000,,2013-06-05 11:21:00,
2013-06-05 03:42:00,48.0,37.0,-100.00,NNW,345,2.0,7.0,64,0.00,,,-99.99,0.000000,,2013-06-05 11:42:00,
2013-06-05 03:52:00,48.0,37.0,-100.00,NNW,345,2.0,7.0,64,0.00,,,-99.99,0.000000,,2013-06-05 11:52:00,
2013-06-05 04:02:00,48.0,37.0,-100.00,NNW,345,2.0,7.0,64,0.00,,,-99.99,0.000000,,2013-06-05 12:02:00,
2013-06-05 04:12:00,48.0,37.0,-100.00,NNW,345,2.0,7.0,64,0.00,,,-99.99,0.000000,,2013-06-05 12:12:00,
2013-06-05 04:22:00,48.0,37.0,-100.00,NNW,345,2.0,7.0,64,0.00,,,-99.99,0.000000,,2013-06-05 12:22:00,
2013-06-05 04:44:00,48.0,39.0,-100.00,NW,312,4.0,10.0,69,0.00,,,0.00,1.000000,,2013-06-05 12:44:00,
2013-06-05 04:52:00,48.0,39.0,-100.00,NW,312,4.0,10.0,69,0.00,,,0.00,1.000000,,2013-06-05 12:52:00,
2013-06-05 05:02:00,48.0,39.0,-100.00,NW,312,4.0,10.0,69,0.00,,,0.00,1.000000,,2013-06-05 13:02:00,
2013-06-05 05:12:00,48.0,39.0,-100.00,NW,312,4.0,10.0,69,0.00,,,0.00,1.000000,,2013-06-05 13:12:00,
2013-06-05 05:21:00,48.0,39.0,-100.00,NW,312,4.0,10.0,69,0.00,,,0.00,1.000000,,2013-06-05 13:21:00,
2013-06-05 05:42:00,48.0,41.0,-100.00,NW,311,4.0,10.0,76,0.00,,,-99.99,8.000000,,2013-06-05 13:42:00,
2013-06-05 05:52:00,48.0,41.0,-100.00,NW,311,4.0,10.0,76,0.00,,,-99.99,8.000000,,2013-06-05 13:52:00,
2013-06-05 06:02:00,48.0,41.0,-100.00,NW,311,4.0,10.0,76,0.00,,,-99.99,8.000000,,2013-06-05 14:02:00,
2013-06-05 06:12:00,48.0,41.0,-100.00,NW,311,4.0,10.0,76,0.00,,,-99.99,8.000000,,2013-06-05 14:12:00,
2013-06-05 06:22:00,48.0,41.0,-100.00,NW,311,4.0,10.0,76,0.00,,,-99.99,8.000000,,2013-06-05 14:22:00,
2013-06-05 06:42:00,48.0,40.0,-100.00,NNW,336,3.0,6.0,73,0.00,,,-99.99,27.000000,,2013-06-05 14:42:00,
2013-06-05 06:52:00,48.0,40.0,-100.00,NNW,336,3.0,6.0,73,0.00,,,-99.99,27.000000,,2013-06-05 14:52:00,
2013-06-05 07:02:00,48.0,40.0,-100.00,NNW,336,3.0,6.0,73,0.00,,,-99.99,27.000000,,2013-06-05 15:02:00,
2013-06-05 07:12:00,48.0,40.0,-100.00,NNW,336,3.0,6.0,73,0.00,,,-99.99,27.000000,,2013-06-05 15:12:00,
2013-06-05 07:22:00,48.0,40.0,-100.00,NNW,336,3.0,6.0,73,0.00,,,-99.99,27.000000,,2013-06-05 15:22:00,
2013-06-05 07:43:00,48.0,41.0,-100.00,NNW,333,2.0,5.0,75,0.00,,,0.00,44.000000,,2013-06-05 15:43:00,
2013-06-05 07:53:00,48.0,41.0,-100.00,NNW,333,2.0,5.0,75,0.00,,,0.00,44.000000,,2013-06-05 15:53:00,
2013-06-05 08:03:00,48.0,41.0,-100.00,NNW,333,2.0,5.0,75,0.00,,,0.00,44.000000,,2013-06-05 16:03:00,
2013-06-05 08:12:00,48.0,41.0,-100.00,NNW,333,2.0,5.0,75,0.00,,,0.00,44.000000,,2013-06-05 16:12:00,
2013-06-05 08:22:00,48.0,41.0,-100.00,NNW,333,2.0,5.0,75,0.00,,,0.00,44.000000,,2013-06-05 16:22:00,
2013-06-05 08:42:00,48.0,39.0,-100.00,NNW,339,2.0,6.0,69,0.00,,,0.00,100.000000,,2013-06-05 16:42:00,
2013-06-05 08:54:00,48.0,39.0,-100.00,NNW,339,2.0,6.0,69,0.00,,,0.00,100.000000,,2013-06-05 16:54:00,
2013-06-05 09:02:00,48.0,39.0,-100.00,NNW,339,2.0,6.0,69,0.00,,,0.00,100.000000,,2013-06-05 17:02:00,
2013-06-05 09:12:00,48.0,39.0,-100.00,NNW,339,2.0,6.0,69,0.00,,,0.00,100.000000,,2013-06-05 17:12:00,
2013-06-05 09:22:00,48.0,39.0,-100.00,NNW,339,2.0,6.0,69,0.00,,,0.00,100.000000,,2013-06-05 17:22:00,
2013-06-05 09:43:00,50.0,40.0,-100.00,NNW,329,3.0,8.0,68,0.00,,,0.00,156.000000,,2013-06-05 17:43:00,
2013-06-05 09:52:00,50.0,40.0,-100.00,NNW,329,3.0,8.0,68,0.00,,,0.00,156.000000,,2013-06-05 17:52:00,
2013-06-05 10:02:00,50.0,40.0,-100.00,NNW,329,3.0,8.0,68,0.00,,,0.00,156.000000,,2013-06-05 18:02:00,
2013-06-05 10:12:00,50.0,40.0,-100.00,NNW,329,3.0,8.0,68,0.00,,,0.00,156.000000,,2013-06-05 18:12:00,
2013-06-05 10:22:00,50.0,40.0,-100.00,NNW,329,3.0,8.0,68,0.00,,,0.00,156.000000,,2013-06-05 18:22:00,
2013-06-05 10:42:00,50.0,39.0,-100.00,NW,319,2.0,6.0,65,0.00,,,-99.99,234.000000,,2013-06-05 18:42:00,
2013-06-05 10:52:00,50.0,39.0,-100.00,NW,319,2.0,6.0,65,0.00,,,-99.99,234.000000,,2013-06-05 18:52:00,
2013-06-05 11:02:00,50.0,39.0,-100.00,NW,319,2.0,6.0,65,0.00,,,-99.99,234.000000,,2013-06-05 19:02:00,
2013-06-05 11:12:00,50.0,39.0,-100.00,NW,319,2.0,6.0,65,0.00,,,-99.99,234.000000,,2013-06-05 19:12:00,
2013-06-05 11:22:00,50.0,39.0,-100.00,NW,319,2.0,6.0,65,0.00,,,-99.99,234.000000,,2013-06-05 19:22:00,
2013-06-05 11:42:00,50.0,38.0,-100.00,NNW,339,3.0,8.0,64,0.00,,,0.00,310.000000,,2013-06-05 19:42:00,
2013-06-05 11:53:00,50.0,38.0,-100.00,NNW,339,3.0,8.0,64,0.00,,,0.00,310.000000,,2013-06-05 19:53:00,
2013-06-05 12:02:00,50.0,38.0,-100.00,NNW,339,3.0,8.0,64,0.00,,,0.00,310.000000,,2013-06-05 20:02:00,
2013-06-05 12:12:00,50.0,38.0,-100.00,NNW,339,3.0,8.0,64,0.00,,,0.00,310.000000,,2013-06-05 20:12:00,
2013-06-05 12:22:00,50.0,38.0,-100.00,NNW,339,3.0,8.0,64,0.00,,,0.00,310.000000,,2013-06-05 20:22:00,
2013-06-05 12:42:00,52.0,40.0,-100.00,NW,313,3.0,7.0,65,0.00,,,0.00,454.000000,,2013-06-05 20:42:00,
2013-06-05 12:52:00,52.0,40.0,-100.00,NW,313,3.0,7.0,65,0.00,,,0.00,454.000000,,2013-06-05 20:52:00,
2013-06-05 13:02:00,52.0,40.0,-100.00,NW,313,3.0,7.0,65,0.00,,,0.00,454.000000,,2013-06-05 21:02:00,
2013-06-05 13:12:00,52.0,40.0,-100.00,NW,313,3.0,7.0,65,0.00,,,0.00,454.000000,,2013-06-05 21:12:00,
2013-06-05 13:21:00,52.0,40.0,-100.00,NW,313,3.0,7.0,65,0.00,,,0.00,454.000000,,2013-06-05 21:21:00,
2013-06-05 13:43:00,52.0,39.0,-100.00,NNW,347,3.0,7.0,61,0.00,,,0.00,454.000000,,2013-06-05 21:43:00,
2013-06-05 13:53:00,52.0,39.0,-100.00,NNW,347,3.0,7.0,61,0.00,,,0.00,454.000000,,2013-06-05 21:53:00,
2013-06-05 14:02:00,52.0,39.0,-100.00,NNW,347,3.0,7.0,61,0.00,,,0.00,454.000000,,2013-06-05 22:02:00,
2013-06-05 14:12:00,52.0,39.0,-100.00,NNW,347,3.0,7.0,61,0.00,,,0.00,454.000000,,2013-06-05 22:12:00,
2013-06-05 14:22:00,52.0,39.0,-100.00,NNW,347,3.0,7.0,61,0.00,,,0.00,454.000000,,2013-06-05 22:22:00,
2013-06-05 14:43:00,52.0,38.0,-100.00,North,352,3.0,5.0,58,0.00,,,0.00,352.000000,,2013-06-05 22:43:00,
2013-06-05 14:52:00,52.0,38.0,-100.00,North,352,3.0,5.0,58,0.00,,,0.00,352.000000,,2013-06-05 22:52:00,
2013-06-05 15:02:00,52.0,38.0,-100.00,North,352,3.0,5.0,58,0.00,,,0.00,352.000000,,2013-06-05 23:02:00,
2013-06-05 15:12:00,52.0,38.0,-100.00,North,352,3.0,5.0,58,0.00,,,0.00,352.000000,,2013-06-05 23:12:00,
2013-06-05 15:21:00,52.0,38.0,-100.00,North,352,3.0,5.0,58,0.00,,,0.00,352.000000,,2013-06-05 23:21:00,
2013-06-05 15:42:00,52.0,38.0,-100.00,North,352,3.0,5.0,58,0.00,,,0.00,297.000000,,2013-06-05 23:42:00,
2013-06-05 15:53:00,52.0,38.0,-100.00,North,352,3.0,5.0,58,0.00,,,0.00,297.000000,,2013-06-05 23:53:00,
2013-06-05 16:02:00,52.0,38.0,-100.00,North,352,3.0,5.0,58,0.00,,,0.00,297.000000,,2013-06-06 00:02:00,
2013-06-05 16:12:00,52.0,38.0,-100.00,North,352,3.0,5.0,58,0.00,,,0.00,297.000000,,2013-06-06 00:12:00,
2013-06-05 16:21:00,52.0,38.0,-100.00,North,352,3.0,5.0,58,0.00,,,0.00,297.000000,,2013-06-06 00:21:00,
2013-06-05 16:43:00,52.0,39.0,-100.00,NNW,333,3.0,6.0,61,0.00,,,0.00,166.000000,,2013-06-06 00:43:00,
2013-06-05 16:52:00,52.0,39.0,-100.00,NNW,333,3.0,6.0,61,0.00,,,0.00,166.000000,,2013-06-06 00:52:00,
2013-06-05 17:02:00,52.0,39.0,-100.00,NNW,333,3.0,6.0,61,0.00,,,0.00,166.000000,,2013-06-06 01:02:00,
2013-06-05 17:12:00,52.0,39.0,-100.00,NNW,333,3.0,6.0,61,0.00,,,0.00,166.000000,,2013-06-06 01:12:00,
2013-06-05 17:21:00,52.0,39.0,-100.00,NNW,333,3.0,6.0,61,0.00,,,0.00,166.000000,,2013-06-06 01:21:00,
2013-06-05 17:42:00,52.0,40.0,-100.00,NW,325,3.0,8.0,63,0.00,,,0.00,166.000000,,2013-06-06 01:42:00,
2013-06-05 17:53:00,52.0,40.0,-100.00,NW,325,3.0,8.0,63,0.00,,,0.00,166.000000,,2013-06-06 01:53:00,
2013-06-05 18:02:00,52.0,40.0,-100.00,NW,325,3.0,8.0,63,0.00,,,0.00,166.000000,,2013-06-06 02:02:00,
2013-06-05 18:12:00,52.0,40.0,-100.00,NW,325,3.0,8.0,63,0.00,,,0.00,166.000000,,2013-06-06 02:12:00,
2013-06-05 18:21:00,52.0,40.0,-100.00,NW,325,3.0,8.0,63,0.00,,,0.00,166.000000,,2013-06-06 02:21:00,
2013-06-05 19:02:00,52.0,40.0,-100.00,North,2,2.0,5.0,64,0.00,,,0.00,127.000000,,2013-06-06 03:02:00,
2013-06-05 19:12:00,52.0,40.0,-100.00,North,2,2.0,5.0,64,0.00,,,0.00,127.000000,,2013-06-06 03:12:00,
2013-06-05 19:22:00,52.0,40.0,-100.00,North,2,2.0,5.0,64,0.00,,,0.00,127.000000,,2013-06-06 03:22:00,
2013-06-05 19:43:00,52.0,42.0,-100.00,North,350,2.0,4.0,69,0.00,,,0.00,136.000000,,2013-06-06 03:43:00,
2013-06-05 19:52:00,52.0,42.0,-100.00,North,350,2.0,4.0,69,0.00,,,0.00,136.000000,,2013-06-06 03:52:00,
2013-06-05 20:03:00,52.0,42.0,-100.00,North,350,2.0,4.0,69,0.00,,,0.00,136.000000,,2013-06-06 04:03:00,
2013-06-05 20:13:00,52.0,42.0,-100.00,North,350,2.0,4.0,69,0.00,,,0.00,136.000000,,2013-06-06 04:13:00,
2013-06-05 20:22:00,52.0,42.0,-100.00,North,350,2.0,4.0,69,0.00,,,0.00,136.000000,,2013-06-06 04:22:00,
2013-06-05 20:42:00,50.0,40.0,-100.00,NNE,13,2.0,4.0,69,0.00,,,0.00,63.000000,,2013-06-06 04:42:00,
2013-06-05 20:53:00,50.0,40.0,-100.00,NNE,13,2.0,4.0,69,0.00,,,0.00,63.000000,,2013-06-06 04:53:00,
2013-06-05 21:02:00,50.0,40.0,-100.00,NNE,13,2.0,4.0,69,0.00,,,0.00,63.000000,,2013-06-06 05:02:00,
2013-06-05 21:12:00,50.0,40.0,-100.00,NNE,13,2.0,4.0,69,0.00,,,0.00,63.000000,,2013-06-06 05:12:00,
2013-06-05 21:22:00,50.0,40.0,-100.00,NNE,13,2.0,4.0,69,0.00,,,0.00,63.000000,,2013-06-06 05:22:00,
2013-06-05 21:42:00,48.0,42.0,-100.00,North,350,2.0,5.0,80,0.00,,,0.00,46.000000,,2013-06-06 05:42:00,
2013-06-05 21:52:00,48.0,42.0,-100.00,North,350,2.0,5.0,80,0.00,,,0.00,46.000000,,2013-06-06 05:52:00,
2013-06-05 22:02:00,48.0,42.0,-100.00,North,350,2.0,5.0,80,0.00,,,0.00,46.000000,,2013-06-06 06:02:00,
2013-06-05 22:12:00,48.0,42.0,-100.00,North,350,2.0,5.0,80,0.00,,,0.00,46.000000,,2013-06-06 06:12:00,
2013-06-05 22:21:00,48.0,42.0,-100.00,North,350,2.0,5.0,80,0.00,,,0.00,46.000000,,2013-06-06 06:21:00,
2013-06-05 22:42:00,46.0,43.0,-100.00,North,0,1.0,4.0,87,0.00,,,0.00,10.000000,,2013-06-06 06:42:00,
2013-06-05 22:52:00,46.0,43.0,-100.00,North,0,1.0,4.0,87,0.00,,,0.00,10.000000,,2013-06-06 06:52:00,
2013-06-05 23:02:00,46.0,43.0,-100.00,North,0,1.0,4.0,87,0.00,,,0.00,10.000000,,2013-06-06 07:02:00,
2013-06-05 23:12:00,46.0,43.0,-100.00,North,0,1.0,4.0,87,0.00,,,0.00,10.000000,,2013-06-06 07:12:00,
2013-06-05 23:22:00,46.0,43.0,-100.00,North,0,1.0,4.0,87,0.00,,,0.00,10.000000,,2013-06-06 07:22:00,
2013-06-05 23:42:00,45.0,41.0,-100.00,SSE,160,1.0,2.0,87,0.00,,,0.00,1.000000,,2013-06-06 07:42:00,
2013-06-05 23:52:00,45.0,41.0,-100.00,SSE,160,1.0,2.0,87,0.00,,,0.00,1.000000,,2013-06-06 07:52:00,